(228675) = 2002 JT86

Discovered at Socorro on 2002-05-11 by LINEAR.

Orbit

Orbit type: Main Belt

Note: WebGL enabled browser required.

epoch2024-03-31.0
epoch JD2460400.5
perihelion date2019-07-03.01852
perihelion JD2458667.51852
argument of perihelion (°)56.36233
ascending node (°)231.47901
inclination (°)11.95280
eccentricity0.1623465
perihelion distance (AU)2.6100116
Tisserand w.r.t. Jupiter3.2
ΔV w.r.t. Earth (km/sec)10.7
semimajor axis (AU)3.1158605
mean anomaly (°)310.54944
mean daily motion (°/day)0.17919950
aphelion distance (AU)3.622
period (years)5.5
P-vector [x]0.29225937
P-vector [y]-0.93163224
P-vector [z]-0.21597647
Q-vector [x]0.94251205
Q-vector [y]0.24232828
Q-vector [z]0.23010442
absolute magnitude15.52
phase slope0.15
uncertainty0
referenceMPEC 2024-F50
observations used310
oppositions15
arc length (days)8401
first opposition used2001
last opposition used2024
residual rms (arc-secs)0.70
perturbers coarse indicatorM-v
perturbers precise indicator003Ek
first observation date used2001-03-19.0
last observation date used2024-03-19.0
computer nameMPCLINUX
JD of orbit computation2456966.800828
perihelion JD uncertainty (days)1.7229E-04
argument of perihelion uncertainty (°)5.0771E-05
ascending node uncertainty (°)3.5756E-05
inclination uncertainty (°)8.6630E-06
eccentricity uncertainty 5.5847E-08
perihelion distance uncertainty (AU)1.6878E-07
Minimum Orbit Intersection Distances (in AU)
for orbit epoch: 2460400.5, reference: E2024-GD4
Mercury2.1704
Venus1.90152
Earth1.61647
Mars1.19201
Jupiter1.58444
Saturn5.48835
Uranus15.0875
Neptune26.4073

Observations

316 total observations over interval: 2001 03 19.181970 – 2024 03 19.634920
These data are available for download (format description).

Date (UT) J2000 RA J2000 Dec Magn Location Ref
2001 03 19.181970 09 26 58.776 -01 25 29.78 20.89 V 645 – Apache Point-Sloan Digital Sky Survey MPS 90453
2001 03 19.185442 09 26 58.677 -01 25 28.61 21.59   645 – Apache Point-Sloan Digital Sky Survey MPS 90453
2002 04 14.34906 15 10 39.86 -20 57 34.3 19.4   704 – Lincoln Laboratory ETS, New Mexico MPS 57731
2002 04 14.36311 15 10 39.38 -20 57 29.6   704 – Lincoln Laboratory ETS, New Mexico MPS 57731
2002 04 14.37728 15 10 38.93 -20 57 25.1   704 – Lincoln Laboratory ETS, New Mexico MPS 57731
2002 04 14.39135 15 10 38.42 -20 57 20.3   704 – Lincoln Laboratory ETS, New Mexico MPS 57731
2002 04 14.40542 15 10 37.94 -20 57 16.1 20.2   704 – Lincoln Laboratory ETS, New Mexico MPS 57731
2002 05 11.23068 14 51 54.96 -17 54 58.4 18.6   704 – Lincoln Laboratory ETS, New Mexico MPS 55450
2002 05 11.24530 14 51 54.29 -17 54 50.6 19.4   704 – Lincoln Laboratory ETS, New Mexico MPS 55450
2002 05 11.26000 14 51 53.49 -17 54 45.7 19.8   704 – Lincoln Laboratory ETS, New Mexico MPS 55450
2002 05 11.27465 14 51 52.85 -17 54 38.0 19.1   704 – Lincoln Laboratory ETS, New Mexico MPS 55450
2002 05 11.28927 14 51 52.18 -17 54 30.8 18.9   704 – Lincoln Laboratory ETS, New Mexico MPS 55450
2002 05 13.22719 14 50 24.21 -17 39 35.2 18.7   704 – Lincoln Laboratory ETS, New Mexico MPS 55450
2002 05 13.24191 14 50 23.59 -17 39 28.1 19.5   704 – Lincoln Laboratory ETS, New Mexico MPS 55450
2002 05 13.25675 14 50 22.87 -17 39 22.0 19.6   704 – Lincoln Laboratory ETS, New Mexico MPS 55450
2002 05 13.27147 14 50 22.09 -17 39 14.8 19.4   704 – Lincoln Laboratory ETS, New Mexico MPS 55450
2002 05 13.28621 14 50 21.41 -17 39 07.3 18.9   704 – Lincoln Laboratory ETS, New Mexico MPS 55450
2002 05 18.37349 14 46 37.20 -16 59 58.6 19.4   644 – Palomar Mountain/NEAT MPS 55450
2002 05 18.38393 14 46 36.75 -16 59 53.6 19.3   644 – Palomar Mountain/NEAT MPS 55450
2002 05 18.39671 14 46 36.18 -16 59 47.7 19.4   644 – Palomar Mountain/NEAT MPS 55450
2002 06 03.21895 14 37 04.71 -15 06 26.2 20.2 V 291 – LPL/Spacewatch II MPS 57731
2002 06 03.23983 14 37 04.10 -15 06 18.0 20.3 V 291 – LPL/Spacewatch II MPS 57731
2002 06 03.26077 14 37 03.46 -15 06 09.9 20.3 V 291 – LPL/Spacewatch II MPS 57731
2003 08 29.43416 22 44 51.75 +10 54 03.8 20.9   608 – Haleakala-AMOS MPS 85218
2003 08 29.44498 22 44 51.27 +10 53 59.8 20.7   608 – Haleakala-AMOS MPS 85218
2003 08 29.45547 22 44 50.77 +10 53 57.4 20.5   608 – Haleakala-AMOS MPS 85218
2003 09 17.11776 22 32 02.87 +08 52 05.9 18.8 R 699 – Lowell Observatory-LONEOS MPS 85218
2003 09 17.13447 22 32 02.22 +08 51 57.0   699 – Lowell Observatory-LONEOS MPS 85218
2003 09 17.15105 22 32 01.55 +08 51 50.6   699 – Lowell Observatory-LONEOS MPS 85218
2003 09 17.16781 22 32 00.94 +08 51 41.2   699 – Lowell Observatory-LONEOS MPS 85218
2003 09 18.11380 22 31 26.63 +08 44 29.2 19.2 R 699 – Lowell Observatory-LONEOS MPS 85218
2003 09 18.13050 22 31 26.05 +08 44 20.7   699 – Lowell Observatory-LONEOS MPS 85218
2003 09 18.14722 22 31 25.45 +08 44 11.0   699 – Lowell Observatory-LONEOS MPS 85218
2003 09 18.16377 22 31 24.80 +08 44 05.1   699 – Lowell Observatory-LONEOS MPS 85218
2003 09 30.15508 22 25 24.92 +07 09 13.0 19.3 R 699 – Lowell Observatory-LONEOS MPS 86921
2003 09 30.17369 22 25 24.37 +07 09 03.5   699 – Lowell Observatory-LONEOS MPS 86921
2003 09 30.19213 22 25 23.95 +07 08 56.4   699 – Lowell Observatory-LONEOS MPS 86921
2003 09 30.21046 22 25 23.55 +07 08 47.1   699 – Lowell Observatory-LONEOS MPS 86921
2004 11 10.46414 04 26 11.54 +18 33 32.6 20.4 V 691 – Steward Observatory, Kitt Peak-Spacewatch MPS 119273
2004 11 10.48984 04 26 10.36 +18 33 25.8 20.5 V 691 – Steward Observatory, Kitt Peak-Spacewatch MPS 119273
2004 11 10.51596 04 26 09.15 +18 33 18.4 20.4 V 691 – Steward Observatory, Kitt Peak-Spacewatch MPS 119273
2004 12 09.31671 04 03 03.63 +16 21 57.4 20.1 R 703 – Catalina Sky Survey MPS 121163
2004 12 09.32481 04 03 03.23 +16 21 55.6 21.0 R 703 – Catalina Sky Survey MPS 121163
2004 12 09.33285 04 03 03.15 +16 21 53.4 20.4 R 703 – Catalina Sky Survey MPS 121163
2004 12 09.34086 04 03 02.66 +16 21 51.4 20.0 R 703 – Catalina Sky Survey MPS 121163
2009 10 15.27774 01 56 51.53 +18 52 41.7 19.7   704 – Lincoln Laboratory ETS, New Mexico MPS 299309
2009 10 15.29082 01 56 50.86 +18 52 35.1 19.9   704 – Lincoln Laboratory ETS, New Mexico MPS 299309
2009 10 15.31703 01 56 49.69 +18 52 25.5 20.2   704 – Lincoln Laboratory ETS, New Mexico MPS 299309
2009 12 18.12884 01 29 07.87 +12 21 00.1 20.2 V G96 – Mt. Lemmon Survey MPS 307233
2009 12 18.13639 01 29 07.90 +12 20 58.9 20.4 V G96 – Mt. Lemmon Survey MPS 307233
2009 12 18.14404 01 29 07.98 +12 20 58.2 21.3 V G96 – Mt. Lemmon Survey MPS 307233
2009 12 18.15160 01 29 08.05 +12 20 56.6 20.4 V G96 – Mt. Lemmon Survey MPS 307233
2010 01 14.069093 01 39 52.77 +11 57 39.8   C51 – WISE MPS 330680
2010 01 14.201524 01 39 57.63 +11 57 43.9   C51 – WISE MPS 330680
2010 01 14.267613 01 40 00.055 +11 57 50.40   C51 – WISE MPS 879282
2010 01 14.333829 01 40 02.554 +11 57 52.70   C51 – WISE MPS 879282
2010 01 14.400045 01 40 05.22 +11 57 53.2   C51 – WISE MPS 330680
2010 01 14.532350 01 40 10.16 +11 58 00.0   C51 – WISE MPS 330680
2010 01 14.664654 01 40 15.12 +11 58 08.7   C51 – WISE MPS 330680
2010 01 14.79696 01 40 20.21 +11 58 13.6   C51 – WISE MPS 330680
2010 01 14.929391 01 40 25.22 +11 58 22.4   C51 – WISE MPS 330680
2012 02 18.94266 09 51 00.52 -04 28 36.9   J95 – Great Shefford MPS 414006
2012 02 18.95090 09 51 00.13 -04 28 35.0 19.5 R J95 – Great Shefford MPS 414006
2013 04 16.49711 15 23 15.201 -20 53 43.20 19.6 w F51 – Pan-STARRS 1, Haleakala MPS 464840
2013 04 16.51324 15 23 14.661 -20 53 37.94 19.6 w F51 – Pan-STARRS 1, Haleakala MPS 464840
2013 04 16.52939 15 23 14.125 -20 53 32.68 19.5 w F51 – Pan-STARRS 1, Haleakala MPS 464840
2013 04 16.54552 15 23 13.593 -20 53 27.36 19.5 w F51 – Pan-STARRS 1, Haleakala MPS 464840
2013 05 05.44303 15 10 41.756 -18 50 41.82 19.6 g F51 – Pan-STARRS 1, Haleakala MPS 467368
2013 05 05.45391 15 10 41.232 -18 50 37.02 19.6 g F51 – Pan-STARRS 1, Haleakala MPS 467368
2013 05 10.62999 15 06 42.40 -18 11 59.6 19.1 V E12 – Siding Spring Survey MPS 468476
2013 05 10.64068 15 06 41.94 -18 11 55.2 19.0 V E12 – Siding Spring Survey MPS 468476
2013 05 10.65135 15 06 41.43 -18 11 49.8 19.2 V E12 – Siding Spring Survey MPS 468476
2013 05 10.66201 15 06 40.93 -18 11 43.3 18.5 V E12 – Siding Spring Survey MPS 468476
2013 05 11.33956 15 06 09.61 -18 06 42.8 18.8 V G96 – Mt. Lemmon Survey MPS 468476
2013 05 11.34484 15 06 09.36 -18 06 40.5 18.9 V G96 – Mt. Lemmon Survey MPS 468476
2013 05 11.35016 15 06 09.10 -18 06 37.9 18.9 V G96 – Mt. Lemmon Survey MPS 468476
2013 05 11.35549 15 06 08.89 -18 06 35.7 18.9 V G96 – Mt. Lemmon Survey MPS 468476
2013 05 12.18706 15 05 30.65 -18 00 17.7 18.7 R H15 – ISON-NM Observatory, Mayhill MPS 468476
2013 05 12.19758 15 05 30.18 -18 00 12.1 18.7 R H15 – ISON-NM Observatory, Mayhill MPS 468476
2013 05 12.20823 15 05 29.60 -18 00 07.8 18.7 R H15 – ISON-NM Observatory, Mayhill MPS 468476
2013 05 12.21873 15 05 29.10 -18 00 03.9 18.6 R H15 – ISON-NM Observatory, Mayhill MPS 468476
2013 05 16.27448 15 02 23.17 -17 29 12.1 18.8 V G96 – Mt. Lemmon Survey MPS 468476
2013 05 16.28142 15 02 22.88 -17 29 09.0 18.9 V G96 – Mt. Lemmon Survey MPS 468476
2013 05 16.28839 15 02 22.52 -17 29 05.7 18.8 V G96 – Mt. Lemmon Survey MPS 468476
2013 05 16.29549 15 02 22.20 -17 29 02.5 18.9 V G96 – Mt. Lemmon Survey MPS 468476
2013 05 16.33936 15 02 20.14 -17 28 42.3 18.9 V G96 – Mt. Lemmon Survey MPS 468476
2013 05 16.34163 15 02 20.00 -17 28 41.3 18.9 V G96 – Mt. Lemmon Survey MPS 468476
2013 05 16.34391 15 02 19.93 -17 28 40.3 18.8 V G96 – Mt. Lemmon Survey MPS 468476
2013 05 16.34619 15 02 19.82 -17 28 39.1 18.8 V G96 – Mt. Lemmon Survey MPS 468476
2013 05 17.35596 15 01 34.32 -17 20 58.7 19.1 V G96 – Mt. Lemmon Survey MPS 468476
2013 05 17.35662 15 01 34.24 -17 20 58.3 19.0 V G96 – Mt. Lemmon Survey MPS 468476
2013 05 17.36085 15 01 34.10 -17 20 56.1 19.2 V G96 – Mt. Lemmon Survey MPS 468476
2013 05 17.36152 15 01 34.03 -17 20 56.0 19.1 V G96 – Mt. Lemmon Survey MPS 468476
2013 05 17.36580 15 01 33.85 -17 20 53.8 19.3 V G96 – Mt. Lemmon Survey MPS 468476
